Time,TemperatureF,DewpointF,PressureIn,WindDirection,WindDirectionDegrees,WindSpeedMPH,WindSpeedGustMPH,Humidity,HourlyPrecipIn,Conditions,Clouds,dailyrainin,SoftwareType,DateUTC
2013-05-29 00:01:00,73.3,64.9,30.16,North,353,0.0,0.0,75,0.00,,,0.00,Wunderground v.1.15,2013-05-29 04:01:00,
2013-05-29 00:03:00,73.3,64.9,30.16,North,352,0.0,0.0,75,0.00,,,0.00,Wunderground v.1.15,2013-05-29 04:03:00,
2013-05-29 00:05:00,73.2,64.8,30.16,North,351,0.0,0.0,75,0.00,,,0.00,Wunderground v.1.15,2013-05-29 04:05:00,
2013-05-29 00:07:00,73.1,65.1,30.16,North,353,0.0,0.0,76,0.00,,,0.00,Wunderground v.1.15,2013-05-29 04:07:00,
2013-05-29 00:10:00,73.0,65.0,30.16,North,353,0.0,0.0,76,0.00,,,0.00,Wunderground v.1.15,2013-05-29 04:10:00,
2013-05-29 00:15:00,72.9,64.9,30.16,NNW,335,0.0,0.0,76,0.00,,,0.00,Wunderground v.1.15,2013-05-29 04:15:00,
2013-05-29 00:21:00,72.7,64.7,30.16,NNW,333,0.0,0.0,76,0.00,,,0.00,Wunderground v.1.15,2013-05-29 04:21:00,
2013-05-29 00:26:00,72.6,64.6,30.17,NNW,333,0.0,0.0,76,0.00,,,0.00,Wunderground v.1.15,2013-05-29 04:26:00,
2013-05-29 00:32:00,72.3,64.7,30.17,NNW,333,0.0,0.0,77,0.00,,,0.00,Wunderground v.1.15,2013-05-29 04:32:00,
2013-05-29 00:38:00,71.8,64.6,30.17,NNW,333,0.0,0.0,78,0.00,,,0.00,Wunderground v.1.15,2013-05-29 04:38:00,
2013-05-29 00:44:00,71.4,64.5,30.17,NNW,333,0.0,0.0,79,0.00,,,0.00,Wunderground v.1.15,2013-05-29 04:44:00,
2013-05-29 00:49:00,71.1,64.3,30.17,NNW,333,0.0,0.0,79,0.00,,,0.00,Wunderground v.1.15,2013-05-29 04:49:00,
2013-05-29 00:55:00,70.7,64.2,30.17,NNW,333,0.0,0.0,80,0.00,,,0.00,Wunderground v.1.15,2013-05-29 04:55:00,
2013-05-29 01:01:00,70.3,64.2,30.17,NNW,333,0.0,0.0,81,0.00,,,0.00,Wunderground v.1.15,2013-05-29 05:01:00,
2013-05-29 01:06:00,70.1,64.0,30.17,NNW,333,0.0,0.0,81,0.00,,,0.00,Wunderground v.1.15,2013-05-29 05:06:00,
2013-05-29 01:11:00,69.8,64.1,30.17,NNW,333,0.0,0.0,82,0.00,,,0.00,Wunderground v.1.15,2013-05-29 05:11:00,
2013-05-29 01:17:00,69.6,64.2,30.17,NNW,333,0.0,0.0,83,0.00,,,0.00,Wunderground v.1.15,2013-05-29 05:17:00,
2013-05-29 01:22:00,69.4,64.0,30.17,NNW,333,0.0,0.0,83,0.00,,,0.00,Wunderground v.1.15,2013-05-29 05:22:00,
2013-05-29 01:28:00,69.2,63.8,30.17,NNW,333,0.0,0.0,83,0.00,,,0.00,Wunderground v.1.15,2013-05-29 05:28:00,
2013-05-29 01:33:00,69.2,63.8,30.17,NNW,333,0.0,0.0,83,0.00,,,0.00,Wunderground v.1.15,2013-05-29 05:33:00,
2013-05-29 01:39:00,69.1,63.7,30.17,NNW,333,0.0,0.0,83,0.00,,,0.00,Wunderground v.1.15,2013-05-29 05:39:00,
2013-05-29 01:44:00,68.9,63.5,30.17,NNW,333,0.0,0.0,83,0.00,,,0.00,Wunderground v.1.15,2013-05-29 05:44:00,
2013-05-29 01:50:00,68.8,63.4,30.17,NNW,333,0.0,0.0,83,0.00,,,0.00,Wunderground v.1.15,2013-05-29 05:50:00,
2013-05-29 01:56:00,68.9,63.5,30.16,WNW,288,0.0,0.0,83,0.00,,,0.00,Wunderground v.1.15,2013-05-29 05:56:00,
2013-05-29 02:01:00,68.9,63.5,30.16,WNW,288,0.0,0.0,83,0.00,,,0.00,Wunderground v.1.15,2013-05-29 06:01:00,
2013-05-29 02:06:00,68.9,63.2,30.16,WNW,288,0.0,0.0,82,0.00,,,0.00,Wunderground v.1.15,2013-05-29 06:06:00,
2013-05-29 02:12:00,68.8,63.4,30.16,WNW,289,0.0,0.0,83,0.00,,,0.00,Wunderground v.1.15,2013-05-29 06:12:00,
2013-05-29 02:17:00,68.7,63.3,30.16,WNW,288,0.0,0.0,83,0.00,,,0.00,Wunderground v.1.15,2013-05-29 06:17:00,
2013-05-29 02:23:00,68.6,63.2,30.16,WNW,288,0.0,0.0,83,0.00,,,0.00,Wunderground v.1.15,2013-05-29 06:23:00,
2013-05-29 02:33:00,68.3,63.3,30.16,WNW,288,0.0,0.0,84,0.00,,,0.00,Wunderground v.1.15,2013-05-29 06:33:00,
2013-05-29 02:38:00,68.1,63.1,30.16,WNW,288,0.0,0.0,84,0.00,,,0.00,Wunderground v.1.15,2013-05-29 06:38:00,
2013-05-29 02:44:00,67.9,62.9,30.16,WNW,289,0.0,0.0,84,0.00,,,0.00,Wunderground v.1.15,2013-05-29 06:44:00,
2013-05-29 02:49:00,67.7,62.7,30.16,WNW,288,0.0,0.0,84,0.00,,,0.00,Wunderground v.1.15,2013-05-29 06:49:00,
2013-05-29 02:55:00,67.5,62.8,30.16,WNW,288,0.0,0.0,85,0.00,,,0.00,Wunderground v.1.15,2013-05-29 06:55:00,
2013-05-29 03:01:00,67.2,62.9,30.16,WNW,288,0.0,0.0,86,0.00,,,0.00,Wunderground v.1.15,2013-05-29 07:01:00,
2013-05-29 03:06:00,67.1,62.8,30.16,WNW,288,0.0,0.0,86,0.00,,,0.00,Wunderground v.1.15,2013-05-29 07:06:00,
2013-05-29 03:11:00,66.9,62.6,30.16,WNW,288,0.0,0.0,86,0.00,,,0.00,Wunderground v.1.15,2013-05-29 07:11:00,
2013-05-29 03:17:00,66.7,62.4,30.16,WNW,288,0.0,0.0,86,0.00,,,0.00,Wunderground v.1.15,2013-05-29 07:17:00,
2013-05-29 03:22:00,66.6,62.6,30.16,WNW,288,0.0,0.0,87,0.00,,,0.00,Wunderground v.1.15,2013-05-29 07:22:00,
2013-05-29 03:27:00,66.5,62.5,30.17,WNW,288,0.0,0.0,87,0.00,,,0.00,Wunderground v.1.15,2013-05-29 07:27:00,
2013-05-29 03:33:00,66.3,62.3,30.17,WNW,288,0.0,0.0,87,0.00,,,0.00,Wunderground v.1.15,2013-05-29 07:33:00,
2013-05-29 03:39:00,66.2,62.5,30.17,WNW,288,0.0,0.0,88,0.00,,,0.00,Wunderground v.1.15,2013-05-29 07:39:00,
2013-05-29 03:44:00,66.0,62.3,30.17,WNW,288,0.0,0.0,88,0.00,,,0.00,Wunderground v.1.15,2013-05-29 07:44:00,
2013-05-29 03:49:00,65.9,62.2,30.17,WNW,289,0.0,0.0,88,0.00,,,0.00,Wunderground v.1.15,2013-05-29 07:49:00,
2013-05-29 03:55:00,65.7,62.0,30.17,WNW,288,0.0,0.0,88,0.00,,,0.00,Wunderground v.1.15,2013-05-29 07:55:00,
2013-05-29 04:01:00,65.6,62.3,30.18,WNW,288,0.0,0.0,89,0.00,,,0.00,Wunderground v.1.15,2013-05-29 08:01:00,
2013-05-29 04:06:00,65.5,62.2,30.18,WNW,288,0.0,0.0,89,0.00,,,0.00,Wunderground v.1.15,2013-05-29 08:06:00,
2013-05-29 04:11:00,65.4,62.1,30.18,WNW,288,0.0,0.0,89,0.00,,,0.00,Wunderground v.1.15,2013-05-29 08:11:00,
2013-05-29 04:16:00,65.3,62.0,30.18,WNW,289,0.0,0.0,89,0.00,,,0.00,Wunderground v.1.15,2013-05-29 08:16:00,
2013-05-29 04:22:00,65.1,61.8,30.18,WNW,288,0.0,0.0,89,0.00,,,0.00,Wunderground v.1.15,2013-05-29 08:22:00,
2013-05-29 04:27:00,65.0,62.0,30.18,WNW,288,0.0,0.0,90,0.00,,,0.00,Wunderground v.1.15,2013-05-29 08:27:00,
2013-05-29 04:33:00,64.9,61.9,30.18,WNW,288,0.0,0.0,90,0.00,,,0.00,Wunderground v.1.15,2013-05-29 08:33:00,
2013-05-29 04:38:00,64.7,62.0,30.18,WNW,288,0.0,0.0,91,0.00,,,0.00,Wunderground v.1.15,2013-05-29 08:38:00,
2013-05-29 04:44:00,64.5,61.8,30.18,WNW,288,0.0,0.0,91,0.00,,,0.00,Wunderground v.1.15,2013-05-29 08:44:00,
2013-05-29 04:49:00,64.4,61.7,30.18,WNW,288,0.0,0.0,91,0.00,,,0.00,Wunderground v.1.15,2013-05-29 08:49:00,
2013-05-29 04:55:00,64.3,61.6,30.18,WNW,288,0.0,0.0,91,0.00,,,0.00,Wunderground v.1.15,2013-05-29 08:55:00,
2013-05-29 05:00:00,64.1,61.4,30.19,WNW,289,0.0,0.0,91,0.00,,,0.00,Wunderground v.1.15,2013-05-29 09:00:00,
2013-05-29 05:06:00,64.0,61.3,30.19,WNW,288,0.0,0.0,91,0.00,,,0.00,Wunderground v.1.15,2013-05-29 09:06:00,
2013-05-29 05:11:00,63.9,61.2,30.19,WNW,288,0.0,0.0,91,0.00,,,0.00,Wunderground v.1.15,2013-05-29 09:11:00,
2013-05-29 05:17:00,63.7,61.0,30.19,WNW,288,0.0,0.0,91,0.00,,,0.00,Wunderground v.1.15,2013-05-29 09:17:00,
2013-05-29 05:22:00,63.7,61.0,30.19,WNW,288,0.0,0.0,91,0.00,,,0.00,Wunderground v.1.15,2013-05-29 09:22:00,
2013-05-29 05:27:00,63.5,60.8,30.19,WNW,288,0.0,0.0,91,0.00,,,0.00,Wunderground v.1.15,2013-05-29 09:27:00,
2013-05-29 05:32:00,63.4,60.7,30.19,WNW,288,0.0,0.0,91,0.00,,,0.00,Wunderground v.1.15,2013-05-29 09:32:00,
2013-05-29 05:38:00,63.3,60.9,30.19,WNW,288,0.0,0.0,92,0.00,,,0.00,Wunderground v.1.15,2013-05-29 09:38:00,
2013-05-29 05:43:00,63.2,60.8,30.19,WNW,288,0.0,0.0,92,0.00,,,0.00,Wunderground v.1.15,2013-05-29 09:43:00,
2013-05-29 05:49:00,63.1,60.7,30.19,WNW,288,0.0,0.0,92,0.00,,,0.00,Wunderground v.1.15,2013-05-29 09:49:00,
2013-05-29 05:54:00,63.0,60.6,30.19,WNW,288,0.0,0.0,92,0.00,,,0.00,Wunderground v.1.15,2013-05-29 09:54:00,
2013-05-29 06:00:00,63.0,60.6,30.20,WNW,288,0.0,0.0,92,0.00,,,0.00,Wunderground v.1.15,2013-05-29 10:00:00,
2013-05-29 06:05:00,62.9,60.8,30.20,WNW,288,0.0,0.0,93,0.00,,,0.00,Wunderground v.1.15,2013-05-29 10:05:00,
2013-05-29 06:11:00,62.8,60.7,30.20,WNW,288,0.0,0.0,93,0.00,,,0.00,Wunderground v.1.15,2013-05-29 10:11:00,
2013-05-29 06:17:00,62.8,60.7,30.20,WNW,288,0.0,0.0,93,0.00,,,0.00,Wunderground v.1.15,2013-05-29 10:17:00,
2013-05-29 06:22:00,62.7,60.6,30.20,WNW,288,0.0,0.0,93,0.00,,,0.00,Wunderground v.1.15,2013-05-29 10:22:00,
2013-05-29 06:27:00,62.7,60.6,30.20,WNW,288,0.0,0.0,93,0.00,,,0.00,Wunderground v.1.15,2013-05-29 10:27:00,
2013-05-29 06:33:00,62.6,60.5,30.20,WNW,288,0.0,0.0,93,0.00,,,0.00,Wunderground v.1.15,2013-05-29 10:33:00,
2013-05-29 06:38:00,62.6,60.5,30.20,WNW,288,0.0,0.0,93,0.00,,,0.00,Wunderground v.1.15,2013-05-29 10:38:00,
2013-05-29 06:44:00,62.6,60.5,30.20,WNW,289,0.0,0.0,93,0.00,,,0.00,Wunderground v.1.15,2013-05-29 10:44:00,
2013-05-29 06:49:00,62.6,60.5,30.21,WNW,288,0.0,0.0,93,0.00,,,0.00,Wunderground v.1.15,2013-05-29 10:49:00,
2013-05-29 06:55:00,62.7,60.9,30.21,WNW,288,0.0,0.0,94,0.00,,,0.00,Wunderground v.1.15,2013-05-29 10:55:00,
2013-05-29 07:00:00,62.8,61.0,30.21,WNW,288,0.0,0.0,94,0.00,,,0.00,Wunderground v.1.15,2013-05-29 11:00:00,
2013-05-29 07:06:00,62.9,61.1,30.21,WNW,289,0.0,0.0,94,0.00,,,0.00,Wunderground v.1.15,2013-05-29 11:06:00,
2013-05-29 07:11:00,63.0,61.2,30.21,WNW,288,0.0,0.0,94,0.00,,,0.00,Wunderground v.1.15,2013-05-29 11:11:00,
2013-05-29 07:17:00,63.3,61.8,30.21,WNW,288,0.0,0.0,95,0.00,,,0.00,Wunderground v.1.15,2013-05-29 11:17:00,
2013-05-29 07:22:00,63.7,62.2,30.22,WNW,288,0.0,0.0,95,0.00,,,0.00,Wunderground v.1.15,2013-05-29 11:22:00,
2013-05-29 07:28:00,64.1,62.6,30.21,WNW,288,0.0,0.0,95,0.00,,,0.00,Wunderground v.1.15,2013-05-29 11:28:00,
2013-05-29 07:33:00,64.4,62.9,30.22,WNW,288,0.0,0.0,95,0.00,,,0.00,Wunderground v.1.15,2013-05-29 11:33:00,
2013-05-29 07:38:00,64.7,63.2,30.22,WNW,288,0.0,0.0,95,0.00,,,0.00,Wunderground v.1.15,2013-05-29 11:38:00,
2013-05-29 07:44:00,65.1,63.3,30.22,WNW,288,0.0,0.0,94,0.00,,,0.00,Wunderground v.1.15,2013-05-29 11:44:00,
2013-05-29 07:49:00,65.6,63.8,30.22,West,263,0.0,0.0,94,0.00,,,0.00,Wunderground v.1.15,2013-05-29 11:49:00,
2013-05-29 07:54:00,66.1,64.0,30.22,West,264,0.0,0.0,93,0.00,,,0.00,Wunderground v.1.15,2013-05-29 11:54:00,
2013-05-29 08:00:00,66.7,64.3,30.22,NE,43,0.0,0.0,92,0.00,,,0.00,Wunderground v.1.15,2013-05-29 12:00:00,
2013-05-29 08:05:00,67.3,64.3,30.22,East,93,0.0,0.0,90,0.00,,,0.00,Wunderground v.1.15,2013-05-29 12:05:00,
2013-05-29 08:11:00,68.0,65.0,30.21,East,93,0.0,0.0,90,0.00,,,0.00,Wunderground v.1.15,2013-05-29 12:11:00,
2013-05-29 08:16:00,68.4,64.7,30.21,East,94,0.0,0.0,88,0.00,,,0.00,Wunderground v.1.15,2013-05-29 12:16:00,
2013-05-29 08:22:00,69.1,64.7,30.21,ENE,75,0.0,1.0,86,0.00,,,0.00,Wunderground v.1.15,2013-05-29 12:22:00,
2013-05-29 08:27:00,69.6,65.2,30.21,North,353,0.0,1.0,86,0.00,,,0.00,Wunderground v.1.15,2013-05-29 12:27:00,
2013-05-29 08:33:00,70.1,65.0,30.22,NE,48,0.0,0.0,84,0.00,,,0.00,Wunderground v.1.15,2013-05-29 12:33:00,
2013-05-29 08:38:00,70.6,65.5,30.22,NE,48,0.0,0.0,84,0.00,,,0.00,Wunderground v.1.15,2013-05-29 12:38:00,
2013-05-29 08:44:00,71.1,65.3,30.22,ENE,73,0.0,0.0,82,0.00,,,0.00,Wunderground v.1.15,2013-05-29 12:44:00,
2013-05-29 08:50:00,71.7,65.6,30.21,East,82,0.0,0.0,81,0.00,,,0.00,Wunderground v.1.15,2013-05-29 12:50:00,
2013-05-29 08:55:00,72.1,65.9,30.22,North,359,0.0,0.0,81,0.00,,,0.00,Wunderground v.1.15,2013-05-29 12:55:00,
2013-05-29 09:01:00,72.6,65.7,30.22,West,270,0.0,0.0,79,0.00,,,0.00,Wunderground v.1.15,2013-05-29 13:01:00,
2013-05-29 09:06:00,73.0,66.1,30.22,WNW,297,0.0,0.0,79,0.00,,,0.00,Wunderground v.1.15,2013-05-29 13:06:00,
2013-05-29 09:11:00,73.2,65.9,30.22,NE,51,0.0,0.0,78,0.00,,,0.00,Wunderground v.1.15,2013-05-29 13:11:00,
2013-05-29 09:17:00,73.5,65.8,30.23,NE,51,0.0,0.0,77,0.00,,,0.00,Wunderground v.1.15,2013-05-29 13:17:00,
2013-05-29 09:22:00,73.9,66.2,30.23,East,93,0.0,0.0,77,0.00,,,0.00,Wunderground v.1.15,2013-05-29 13:22:00,
2013-05-29 09:28:00,74.2,65.8,30.23,NNE,32,0.0,0.0,75,0.00,,,0.00,Wunderground v.1.15,2013-05-29 13:28:00,
2013-05-29 09:33:00,74.6,66.5,30.23,ENE,75,0.0,0.0,76,0.00,,,0.00,Wunderground v.1.15,2013-05-29 13:33:00,
2013-05-29 09:39:00,74.8,66.3,30.22,NNW,335,0.0,0.0,75,0.00,,,0.00,Wunderground v.1.15,2013-05-29 13:39:00,
2013-05-29 09:44:00,75.0,66.1,30.22,SW,221,0.0,0.0,74,0.00,,,0.00,Wunderground v.1.15,2013-05-29 13:44:00,
2013-05-29 09:49:00,75.5,66.2,30.22,South,190,0.0,0.0,73,0.00,,,0.00,Wunderground v.1.15,2013-05-29 13:49:00,
2013-05-29 09:54:00,75.9,66.2,30.22,ESE,123,0.0,0.0,72,0.00,,,0.00,Wunderground v.1.15,2013-05-29 13:54:00,
2013-05-29 10:00:00,76.4,66.3,30.22,East,84,0.0,0.0,71,0.00,,,0.00,Wunderground v.1.15,2013-05-29 14:00:00,
2013-05-29 10:06:00,76.6,66.5,30.22,East,82,0.0,1.0,71,0.00,,,0.00,Wunderground v.1.15,2013-05-29 14:06:00,
2013-05-29 10:12:00,76.8,66.3,30.22,ESE,115,0.0,0.0,70,0.00,,,0.00,Wunderground v.1.15,2013-05-29 14:12:00,
2013-05-29 10:17:00,77.3,66.7,30.22,WSW,252,0.0,1.0,70,0.00,,,0.00,Wunderground v.1.15,2013-05-29 14:17:00,
2013-05-29 10:23:00,78.0,67.0,30.22,NE,53,0.0,0.0,69,0.00,,,0.00,Wunderground v.1.15,2013-05-29 14:23:00,
2013-05-29 10:28:00,78.4,67.0,30.22,ENE,78,0.0,0.0,68,0.00,,,0.00,Wunderground v.1.15,2013-05-29 14:28:00,
2013-05-29 10:34:00,78.7,66.4,30.22,North,8,0.0,0.0,66,0.00,,,0.00,Wunderground v.1.15,2013-05-29 14:34:00,
2013-05-29 10:39:00,78.7,65.9,30.22,NE,43,0.0,0.0,65,0.00,,,0.00,Wunderground v.1.15,2013-05-29 14:39:00,
2013-05-29 10:44:00,78.6,66.3,30.22,ESE,111,0.0,1.0,66,0.00,,,0.00,Wunderground v.1.15,2013-05-29 14:44:00,
2013-05-29 10:50:00,79.0,65.8,30.22,NE,44,0.0,1.0,64,0.00,,,0.00,Wunderground v.1.15,2013-05-29 14:50:00,
2013-05-29 10:56:00,79.5,66.7,30.22,West,262,0.0,1.0,65,0.00,,,0.00,Wunderground v.1.15,2013-05-29 14:56:00,
2013-05-29 11:01:00,79.8,66.5,30.22,West,262,0.0,1.0,64,0.00,,,0.00,Wunderground v.1.15,2013-05-29 15:01:00,
2013-05-29 11:06:00,79.9,65.7,30.22,East,86,0.0,1.0,62,0.00,,,0.00,Wunderground v.1.15,2013-05-29 15:06:00,
2013-05-29 11:12:00,80.1,65.9,30.22,ENE,78,0.0,0.0,62,0.00,,,0.00,Wunderground v.1.15,2013-05-29 15:12:00,
2013-05-29 11:18:00,80.6,67.3,30.22,NE,51,0.0,0.0,64,0.00,,,0.00,Wunderground v.1.15,2013-05-29 15:18:00,
2013-05-29 11:23:00,81.0,65.8,30.22,NNW,335,0.0,1.0,60,0.00,,,0.00,Wunderground v.1.15,2013-05-29 15:23:00,
2013-05-29 11:28:00,81.6,66.4,30.22,NE,51,0.0,1.0,60,0.00,,,0.00,Wunderground v.1.15,2013-05-29 15:28:00,
2013-05-29 11:34:00,82.1,66.4,30.22,East,88,0.0,0.0,59,0.00,,,0.00,Wunderground v.1.15,2013-05-29 15:34:00,
2013-05-29 11:39:00,82.8,66.5,30.22,West,266,0.0,0.0,58,0.00,,,0.00,Wunderground v.1.15,2013-05-29 15:39:00,
2013-05-29 11:45:00,83.6,66.8,30.22,WSW,252,0.0,0.0,57,0.00,,,0.00,Wunderground v.1.15,2013-05-29 15:45:00,
2013-05-29 11:50:00,83.8,65.9,30.22,East,100,0.0,1.0,55,0.00,,,0.00,Wunderground v.1.15,2013-05-29 15:50:00,
2013-05-29 11:55:00,83.4,67.1,30.22,North,360,0.0,1.0,58,0.00,,,0.00,Wunderground v.1.15,2013-05-29 15:55:00,
2013-05-29 12:01:00,84.1,66.7,30.22,SW,232,0.0,1.0,56,0.00,,,0.00,Wunderground v.1.15,2013-05-29 16:01:00,
2013-05-29 12:06:00,84.5,66.6,30.22,SW,225,0.0,1.0,55,0.00,,,0.00,Wunderground v.1.15,2013-05-29 16:06:00,
2013-05-29 12:12:00,84.7,66.2,30.22,SSE,150,0.0,0.0,54,0.00,,,0.00,Wunderground v.1.15,2013-05-29 16:12:00,
2013-05-29 12:17:00,84.9,67.5,30.22,East,81,0.0,1.0,56,0.00,,,0.00,Wunderground v.1.15,2013-05-29 16:17:00,
2013-05-29 12:23:00,84.9,66.9,30.21,East,98,0.0,0.0,55,0.00,,,0.00,Wunderground v.1.15,2013-05-29 16:23:00,
2013-05-29 12:29:00,84.7,66.7,30.21,SSE,148,0.0,0.0,55,0.00,,,0.00,Wunderground v.1.15,2013-05-29 16:29:00,
2013-05-29 12:34:00,84.9,65.9,30.21,WSW,249,0.0,1.0,53,0.00,,,0.00,Wunderground v.1.15,2013-05-29 16:34:00,
2013-05-29 12:40:00,85.7,67.1,30.21,ENE,59,0.0,0.0,54,0.00,,,0.00,Wunderground v.1.15,2013-05-29 16:40:00,
2013-05-29 12:47:00,86.5,65.7,30.21,West,260,0.0,1.0,50,0.00,,,0.00,Wunderground v.1.15,2013-05-29 16:47:00,
2013-05-29 12:52:00,86.9,67.2,30.21,East,87,0.0,1.0,52,0.00,,,0.00,Wunderground v.1.15,2013-05-29 16:52:00,
2013-05-29 12:57:00,87.3,68.1,30.21,East,79,0.0,1.0,53,0.00,,,0.00,Wunderground v.1.15,2013-05-29 16:57:00,
2013-05-29 13:03:00,87.3,67.0,30.21,NE,49,0.0,1.0,51,0.00,,,0.00,Wunderground v.1.15,2013-05-29 17:03:00,
2013-05-29 13:08:00,86.8,66.5,30.20,West,269,1.0,1.0,51,0.00,,,0.00,Wunderground v.1.15,2013-05-29 17:08:00,
2013-05-29 13:14:00,87.0,66.7,30.20,SSW,204,1.0,1.0,51,0.00,,,0.00,Wunderground v.1.15,2013-05-29 17:14:00,
2013-05-29 13:19:00,87.4,67.1,30.20,West,278,1.0,1.0,51,0.00,,,0.00,Wunderground v.1.15,2013-05-29 17:19:00,
2013-05-29 13:25:00,87.4,66.5,30.20,WSW,256,0.0,1.0,50,0.00,,,0.00,Wunderground v.1.15,2013-05-29 17:25:00,
2013-05-29 13:30:00,87.3,65.8,30.20,East,98,1.0,1.0,49,0.00,,,0.00,Wunderground v.1.15,2013-05-29 17:30:00,
2013-05-29 13:36:00,86.9,67.2,30.19,East,80,1.0,1.0,52,0.00,,,0.00,Wunderground v.1.15,2013-05-29 17:36:00,
2013-05-29 13:41:00,87.6,67.8,30.19,East,82,0.0,1.0,52,0.00,,,0.00,Wunderground v.1.15,2013-05-29 17:41:00,
2013-05-29 13:47:00,88.0,67.6,30.19,NE,53,0.0,1.0,51,0.00,,,0.00,Wunderground v.1.15,2013-05-29 17:47:00,
2013-05-29 13:52:00,87.5,67.1,30.19,NNE,22,0.0,1.0,51,0.00,,,0.00,Wunderground v.1.15,2013-05-29 17:52:00,
2013-05-29 13:58:00,87.5,67.7,30.19,East,84,0.0,1.0,52,0.00,,,0.00,Wunderground v.1.15,2013-05-29 17:58:00,
2013-05-29 14:03:00,87.8,68.0,30.19,North,358,0.0,1.0,52,0.00,,,0.00,Wunderground v.1.15,2013-05-29 18:03:00,
2013-05-29 14:09:00,87.4,66.5,30.19,West,281,1.0,1.0,50,0.00,,,0.00,Wunderground v.1.15,2013-05-29 18:09:00,
2013-05-29 14:14:00,87.2,66.9,30.18,SW,235,1.0,1.0,51,0.00,,,0.00,Wunderground v.1.15,2013-05-29 18:14:00,
2013-05-29 14:20:00,87.9,68.1,30.18,East,81,0.0,1.0,52,0.00,,,0.00,Wunderground v.1.15,2013-05-29 18:20:00,
2013-05-29 14:25:00,88.1,67.7,30.18,NNE,16,0.0,1.0,51,0.00,,,0.00,Wunderground v.1.15,2013-05-29 18:25:00,
2013-05-29 14:31:00,88.3,66.7,30.18,West,278,0.0,1.0,49,0.00,,,0.00,Wunderground v.1.15,2013-05-29 18:31:00,
2013-05-29 14:36:00,88.3,66.1,30.18,West,273,0.0,1.0,48,0.00,,,0.00,Wunderground v.1.15,2013-05-29 18:36:00,
2013-05-29 14:42:00,88.1,66.5,30.18,West,266,0.0,2.0,49,0.00,,,0.00,Wunderground v.1.15,2013-05-29 18:42:00,
2013-05-29 14:47:00,87.5,66.6,30.18,West,268,1.0,2.0,50,0.00,,,0.00,Wunderground v.1.15,2013-05-29 18:47:00,
2013-05-29 14:52:00,87.7,66.2,30.17,NE,50,0.0,1.0,49,0.00,,,0.00,Wunderground v.1.15,2013-05-29 18:52:00,
2013-05-29 14:58:00,87.8,65.7,30.18,East,89,0.0,1.0,48,0.00,,,0.00,Wunderground v.1.15,2013-05-29 18:58:00,
2013-05-29 15:03:00,87.9,66.4,30.18,East,81,0.0,1.0,49,0.00,,,0.00,Wunderground v.1.15,2013-05-29 19:03:00,
2013-05-29 15:08:00,88.3,67.3,30.17,SE,145,0.0,1.0,50,0.00,,,0.00,Wunderground v.1.15,2013-05-29 19:08:00,
2013-05-29 15:14:00,88.3,66.7,30.17,East,91,0.0,1.0,49,0.00,,,0.00,Wunderground v.1.15,2013-05-29 19:14:00,
2013-05-29 15:19:00,88.2,67.2,30.17,NW,304,0.0,0.0,50,0.00,,,0.00,Wunderground v.1.15,2013-05-29 19:19:00,
2013-05-29 15:25:00,88.0,67.0,30.17,NNW,339,0.0,1.0,50,0.00,,,0.00,Wunderground v.1.15,2013-05-29 19:25:00,
2013-05-29 15:31:00,87.9,67.5,30.17,NE,53,0.0,1.0,51,0.00,,,0.00,Wunderground v.1.15,2013-05-29 19:31:00,
2013-05-29 15:36:00,88.0,67.0,30.17,West,259,0.0,1.0,50,0.00,,,0.00,Wunderground v.1.15,2013-05-29 19:36:00,
2013-05-29 15:42:00,87.4,66.5,30.17,East,79,0.0,1.0,50,0.00,,,0.00,Wunderground v.1.15,2013-05-29 19:42:00,
2013-05-29 15:47:00,86.8,67.1,30.17,WSW,242,0.0,1.0,52,0.00,,,0.00,Wunderground v.1.15,2013-05-29 19:47:00,
2013-05-29 15:52:00,86.5,66.2,30.17,ENE,72,0.0,1.0,51,0.00,,,0.00,Wunderground v.1.15,2013-05-29 19:52:00,
2013-05-29 15:58:00,86.5,66.8,30.17,WNW,288,0.0,2.0,52,0.00,,,0.00,Wunderground v.1.15,2013-05-29 19:58:00,
2013-05-29 16:03:00,86.0,66.9,30.17,NW,322,1.0,2.0,53,0.00,,,0.00,Wunderground v.1.15,2013-05-29 20:03:00,
2013-05-29 16:08:00,86.0,66.9,30.17,NE,51,0.0,2.0,53,0.00,,,0.00,Wunderground v.1.15,2013-05-29 20:08:00,
2013-05-29 16:14:00,85.9,66.8,30.17,NE,53,0.0,0.0,53,0.00,,,0.00,Wunderground v.1.15,2013-05-29 20:14:00,
2013-05-29 16:19:00,85.8,66.7,30.16,East,91,0.0,1.0,53,0.00,,,0.00,Wunderground v.1.15,2013-05-29 20:19:00,
2013-05-29 16:24:00,85.7,66.6,30.16,ENE,71,0.0,1.0,53,0.00,,,0.00,Wunderground v.1.15,2013-05-29 20:24:00,
2013-05-29 16:30:00,85.6,66.0,30.16,SW,234,0.0,0.0,52,0.00,,,0.00,Wunderground v.1.15,2013-05-29 20:30:00,
2013-05-29 16:35:00,85.3,66.2,30.16,NW,304,0.0,1.0,53,0.00,,,0.00,Wunderground v.1.15,2013-05-29 20:35:00,
2013-05-29 16:40:00,84.9,65.9,30.16,SSW,204,0.0,0.0,53,0.00,,,0.00,Wunderground v.1.15,2013-05-29 20:40:00,
2013-05-29 16:46:00,84.8,66.3,30.16,NW,323,0.0,0.0,54,0.00,,,0.00,Wunderground v.1.15,2013-05-29 20:46:00,
2013-05-29 16:52:00,84.7,65.7,30.16,East,89,0.0,1.0,53,0.00,,,0.00,Wunderground v.1.15,2013-05-29 20:52:00,
2013-05-29 16:57:00,84.7,66.2,30.16,West,274,0.0,1.0,54,0.00,,,0.00,Wunderground v.1.15,2013-05-29 20:57:00,
2013-05-29 17:02:00,84.6,65.6,30.16,North,8,0.0,0.0,53,0.00,,,0.00,Wunderground v.1.15,2013-05-29 21:02:00,
2013-05-29 17:08:00,84.3,65.8,30.16,WSW,254,0.0,1.0,54,0.00,,,0.00,Wunderground v.1.15,2013-05-29 21:08:00,
2013-05-29 17:13:00,84.2,65.8,30.16,East,101,0.0,0.0,54,0.00,,,0.00,Wunderground v.1.15,2013-05-29 21:13:00,
2013-05-29 17:19:00,84.2,65.8,30.16,East,84,0.0,0.0,54,0.00,,,0.00,Wunderground v.1.15,2013-05-29 21:19:00,
2013-05-29 17:24:00,84.4,65.9,30.16,SSW,207,0.0,1.0,54,0.00,,,0.00,Wunderground v.1.15,2013-05-29 21:24:00,
2013-05-29 17:29:00,84.5,66.6,30.16,ESE,105,0.0,0.0,55,0.00,,,0.00,Wunderground v.1.15,2013-05-29 21:29:00,
2013-05-29 17:34:00,84.5,66.0,30.16,WNW,290,0.0,1.0,54,0.00,,,0.00,Wunderground v.1.15,2013-05-29 21:34:00,
2013-05-29 17:39:00,84.4,65.4,30.16,NNE,12,0.0,0.0,53,0.00,,,0.00,Wunderground v.1.15,2013-05-29 21:39:00,
2013-05-29 17:45:00,84.0,66.1,30.15,West,264,0.0,1.0,55,0.00,,,0.00,Wunderground v.1.15,2013-05-29 21:45:00,
2013-05-29 17:50:00,83.6,65.7,30.16,North,1,0.0,0.0,55,0.00,,,0.00,Wunderground v.1.15,2013-05-29 21:50:00,
2013-05-29 17:56:00,83.4,66.6,30.16,North,1,0.0,0.0,57,0.00,,,0.00,Wunderground v.1.15,2013-05-29 21:56:00,
2013-05-29 18:02:00,83.0,66.7,30.16,North,1,0.0,0.0,58,0.00,,,0.00,Wunderground v.1.15,2013-05-29 22:02:00,
2013-05-29 18:08:00,82.6,66.3,30.16,NE,56,0.0,0.0,58,0.00,,,0.00,Wunderground v.1.15,2013-05-29 22:08:00,
2013-05-29 18:13:00,82.3,66.0,30.16,NE,53,0.0,0.0,58,0.00,,,0.00,Wunderground v.1.15,2013-05-29 22:13:00,
2013-05-29 18:18:00,82.3,67.0,30.16,NW,315,0.0,0.0,60,0.00,,,0.00,Wunderground v.1.15,2013-05-29 22:18:00,
2013-05-29 18:24:00,82.3,66.0,30.16,NNW,339,0.0,0.0,58,0.00,,,0.00,Wunderground v.1.15,2013-05-29 22:24:00,
2013-05-29 18:29:00,82.2,66.0,30.15,ENE,58,0.0,0.0,58,0.00,,,0.00,Wunderground v.1.15,2013-05-29 22:29:00,
2013-05-29 18:34:00,82.1,66.4,30.15,ENE,58,0.0,0.0,59,0.00,,,0.00,Wunderground v.1.15,2013-05-29 22:34:00,
2013-05-29 18:40:00,82.2,66.4,30.15,ENE,73,0.0,0.0,59,0.00,,,0.00,Wunderground v.1.15,2013-05-29 22:40:00,
2013-05-29 18:45:00,82.4,66.1,30.15,WSW,238,0.0,1.0,58,0.00,,,0.00,Wunderground v.1.15,2013-05-29 22:45:00,
2013-05-29 18:50:00,82.5,66.2,30.15,SSW,210,0.0,1.0,58,0.00,,,0.00,Wunderground v.1.15,2013-05-29 22:50:00,
2013-05-29 18:56:00,82.4,66.6,30.15,ESE,107,0.0,1.0,59,0.00,,,0.00,Wunderground v.1.15,2013-05-29 22:56:00,
2013-05-29 19:01:00,82.3,66.5,30.15,NW,307,0.0,0.0,59,0.00,,,0.00,Wunderground v.1.15,2013-05-29 23:01:00,
2013-05-29 19:07:00,82.3,66.5,30.15,West,262,0.0,1.0,59,0.00,,,0.00,Wunderground v.1.15,2013-05-29 23:07:00,
2013-05-29 19:12:00,82.2,66.4,30.15,West,262,0.0,0.0,59,0.00,,,0.00,Wunderground v.1.15,2013-05-29 23:12:00,
2013-05-29 19:17:00,82.1,66.8,30.14,West,274,0.0,0.0,60,0.00,,,0.00,Wunderground v.1.15,2013-05-29 23:17:00,
2013-05-29 19:23:00,81.9,67.1,30.14,West,273,0.0,0.0,61,0.00,,,0.00,Wunderground v.1.15,2013-05-29 23:23:00,
2013-05-29 19:35:00,81.5,67.7,30.14,West,274,0.0,0.0,63,0.00,,,0.00,Wunderground v.1.15,2013-05-29 23:35:00,
2013-05-29 19:40:00,81.3,67.5,30.14,West,274,0.0,0.0,63,0.00,,,0.00,Wunderground v.1.15,2013-05-29 23:40:00,
2013-05-29 19:46:00,81.1,67.3,30.14,West,274,0.0,0.0,63,0.00,,,0.00,Wunderground v.1.15,2013-05-29 23:46:00,
2013-05-29 19:51:00,80.9,68.0,30.14,West,274,0.0,0.0,65,0.00,,,0.00,Wunderground v.1.15,2013-05-29 23:51:00,
2013-05-29 19:56:00,80.5,67.2,30.14,West,274,0.0,0.0,64,0.00,,,0.00,Wunderground v.1.15,2013-05-29 23:56:00,
2013-05-29 20:02:00,80.3,67.0,30.14,West,274,0.0,0.0,64,0.00,,,0.00,Wunderground v.1.15,2013-05-30 00:02:00,
2013-05-29 20:07:00,79.9,67.1,30.14,West,274,0.0,0.0,65,0.00,,,0.00,Wunderground v.1.15,2013-05-30 00:07:00,
2013-05-29 20:13:00,79.5,67.6,30.14,West,274,0.0,0.0,67,0.00,,,0.00,Wunderground v.1.15,2013-05-30 00:13:00,
2013-05-29 20:18:00,79.0,67.5,30.14,West,274,0.0,0.0,68,0.00,,,0.00,Wunderground v.1.15,2013-05-30 00:18:00,
2013-05-29 20:24:00,78.5,67.5,30.14,West,274,0.0,0.0,69,0.00,,,0.00,Wunderground v.1.15,2013-05-30 00:24:00,
2013-05-29 20:30:00,77.9,67.3,30.14,West,274,0.0,0.0,70,0.00,,,0.00,Wunderground v.1.15,2013-05-30 00:30:00,
2013-05-29 20:36:00,77.4,67.3,30.14,West,274,0.0,0.0,71,0.00,,,0.00,Wunderground v.1.15,2013-05-30 00:36:00,
2013-05-29 20:42:00,76.9,67.2,30.15,West,274,0.0,0.0,72,0.00,,,0.00,Wunderground v.1.15,2013-05-30 00:42:00,
2013-05-29 20:47:00,76.5,67.2,30.15,West,274,0.0,0.0,73,0.00,,,0.00,Wunderground v.1.15,2013-05-30 00:47:00,
2013-05-29 20:53:00,76.1,67.2,30.15,West,274,0.0,0.0,74,0.00,,,0.00,Wunderground v.1.15,2013-05-30 00:53:00,
2013-05-29 20:58:00,75.8,67.3,30.15,West,274,0.0,0.0,75,0.00,,,0.00,Wunderground v.1.15,2013-05-30 00:58:00,
2013-05-29 21:04:00,75.2,67.1,30.15,West,274,0.0,0.0,76,0.00,,,0.00,Wunderground v.1.15,2013-05-30 01:04:00,
2013-05-29 21:09:00,74.8,67.1,30.15,West,274,0.0,0.0,77,0.00,,,0.00,Wunderground v.1.15,2013-05-30 01:09:00,
2013-05-29 21:15:00,74.2,66.9,30.15,West,274,0.0,0.0,78,0.00,,,0.00,Wunderground v.1.15,2013-05-30 01:15:00,
2013-05-29 21:20:00,73.7,66.8,30.15,West,274,0.0,0.0,79,0.00,,,0.00,Wunderground v.1.15,2013-05-30 01:20:00,
2013-05-29 21:26:00,73.3,66.8,30.15,West,274,0.0,0.0,80,0.00,,,0.00,Wunderground v.1.15,2013-05-30 01:26:00,
2013-05-29 21:32:00,73.0,66.8,30.16,West,274,0.0,0.0,81,0.00,,,0.00,Wunderground v.1.15,2013-05-30 01:32:00,
2013-05-29 21:37:00,72.8,66.6,30.16,West,274,0.0,0.0,81,0.00,,,0.00,Wunderground v.1.15,2013-05-30 01:37:00,
2013-05-29 21:44:00,72.5,66.7,30.16,West,274,0.0,0.0,82,0.00,,,0.00,Wunderground v.1.15,2013-05-30 01:44:00,
2013-05-29 21:50:00,72.3,66.8,30.16,West,274,0.0,0.0,83,0.00,,,0.00,Wunderground v.1.15,2013-05-30 01:50:00,
2013-05-29 21:55:00,72.1,66.6,30.16,West,274,0.0,0.0,83,0.00,,,0.00,Wunderground v.1.15,2013-05-30 01:55:00,
2013-05-29 22:01:00,71.8,66.4,30.17,West,274,0.0,0.0,83,0.00,,,0.00,Wunderground v.1.15,2013-05-30 02:01:00,
2013-05-29 22:06:00,71.6,66.5,30.17,West,274,0.0,0.0,84,0.00,,,0.00,Wunderground v.1.15,2013-05-30 02:06:00,
2013-05-29 22:12:00,71.4,66.3,30.17,West,274,0.0,0.0,84,0.00,,,0.00,Wunderground v.1.15,2013-05-30 02:12:00,
2013-05-29 22:17:00,71.3,66.6,30.17,West,274,0.0,0.0,85,0.00,,,0.00,Wunderground v.1.15,2013-05-30 02:17:00,
2013-05-29 22:22:00,71.1,66.4,30.17,West,274,0.0,0.0,85,0.00,,,0.00,Wunderground v.1.15,2013-05-30 02:22:00,
2013-05-29 22:28:00,71.0,66.3,30.18,West,274,0.0,0.0,85,0.00,,,0.00,Wunderground v.1.15,2013-05-30 02:28:00,
2013-05-29 22:33:00,70.9,66.2,30.18,West,274,0.0,0.0,85,0.00,,,0.00,Wunderground v.1.15,2013-05-30 02:33:00,
2013-05-29 22:39:00,70.6,65.9,30.18,West,274,0.0,0.0,85,0.00,,,0.00,Wunderground v.1.15,2013-05-30 02:39:00,
2013-05-29 22:44:00,70.5,66.1,30.18,West,274,0.0,0.0,86,0.00,,,0.00,Wunderground v.1.15,2013-05-30 02:44:00,
2013-05-29 22:50:00,70.3,65.9,30.19,West,274,0.0,0.0,86,0.00,,,0.00,Wunderground v.1.15,2013-05-30 02:50:00,
2013-05-29 22:55:00,70.2,65.8,30.19,West,274,0.0,0.0,86,0.00,,,0.00,Wunderground v.1.15,2013-05-30 02:55:00,
2013-05-29 23:00:00,70.1,66.0,30.19,West,274,0.0,0.0,87,0.00,,,0.00,Wunderground v.1.15,2013-05-30 03:00:00,
2013-05-29 23:06:00,69.9,65.9,30.19,West,274,0.0,0.0,87,0.00,,,0.00,Wunderground v.1.15,2013-05-30 03:06:00,
2013-05-29 23:11:00,69.8,65.8,30.19,West,274,0.0,0.0,87,0.00,,,0.00,Wunderground v.1.15,2013-05-30 03:11:00,
2013-05-29 23:17:00,69.7,65.7,30.19,West,274,0.0,0.0,87,0.00,,,0.00,Wunderground v.1.15,2013-05-30 03:17:00,
2013-05-29 23:22:00,69.6,65.6,30.20,West,274,0.0,0.0,87,0.00,,,0.00,Wunderground v.1.15,2013-05-30 03:22:00,
2013-05-29 23:28:00,69.6,65.9,30.20,West,274,0.0,0.0,88,0.00,,,0.00,Wunderground v.1.15,2013-05-30 03:28:00,
2013-05-29 23:33:00,69.5,65.8,30.20,West,274,0.0,0.0,88,0.00,,,0.00,Wunderground v.1.15,2013-05-30 03:33:00,
2013-05-29 23:38:00,69.4,65.7,30.20,West,274,0.0,0.0,88,0.00,,,0.00,Wunderground v.1.15,2013-05-30 03:38:00,
2013-05-29 23:44:00,69.5,65.5,30.20,West,274,0.0,0.0,87,0.00,,,0.00,Wunderground v.1.15,2013-05-30 03:44:00,
2013-05-29 23:49:00,69.9,65.2,30.19,West,274,0.0,0.0,85,0.00,,,0.00,Wunderground v.1.15,2013-05-30 03:49:00,
2013-05-29 23:54:00,70.5,65.4,30.19,West,274,0.0,0.0,84,0.00,,,0.00,Wunderground v.1.15,2013-05-30 03:54:00,